Location: Ethel Rock
(53.4667°N, 4.5667°W)
Time: 01:13:02
(UTC+00:00)

Resurs 1-4 Rocket - Pass Details

Date: 24 October 2020
Orbit: 800 x 813 km, 98.6° (Epoch: 26 November)

Event Time Altitude Azimuth Distance (km) Brightness Sun altitude
Rises 02:46:06 0° 13° (NNE) 3,350 5.9 -37.3°
Reaches altitude 10° 02:48:29 10° 9° (N) 2,415 5.0 -37.0°
Enters shadow 02:49:59 19° 3° (N) 1,857 4.3 -36.8°
